EW8839 Weather Reports


time (UTC)temp
F
wind
direction
speed
knots
gust
knots
rain 1hr
in
rain 24hr
in
rain mn
in
humidity
%
barometer
mb
20260505065550 61 130 0.9 4.3 0.00 0.00 0.00 76 1009.1
20260505065052 60 164 0.0 5.2 0.00 0.00 0.00 77 1009.0
20260505064629 60 137 0.0 5.2 0.00 0.00 0.00 78 1009.1
20260505064005 59 182 0.9 5.2 0.00 0.00 0.00 79 1009.1
20260505063520 58 107 0.0 0.0 0.00 0.00 0.00 81 1009.1
20260505063037 57 107 0.0 0.0 0.00 0.00 0.00 81 1009.1
20260505062553 57 107 0.0 0.9 0.00 0.00 0.00 81 1009.1
20260505062053 57 107 0.0 1.7 0.00 0.00 0.00 81 1009.2
20260505061555 57 107 0.0 0.9 0.00 0.00 0.00 81 1009.2
20260505061007 58 107 0.0 0.9 0.00 0.00 0.00 81 1009.2
20260505060524 58 107 0.0 0.0 0.00 0.00 0.00 81 1009.2
20260505060040 58 107 0.0 0.0 0.00 0.00 0.00 81 1009.3
20260505055557 58 107 0.0 0.0 0.00 0.00 0.00 81 1009.3
20260505055101 58 107 0.0 0.0 0.00 0.00 0.00 80 1009.3
20260505054602 58 107 0.0 0.9 0.00 0.00 0.00 80 1009.3
20260505054012 58 101 0.0 0.9 0.00 0.00 0.00 80 1009.4
20260505053529 58 101 0.0 0.9 0.00 0.00 0.00 80 1009.4
20260505053045 58 102 0.0 0.0 0.00 0.00 0.00 80 1009.4
20260505052602 58 101 0.0 0.0 0.00 0.00 0.00 80 1009.4
20260505052013 58 101 0.0 2.6 0.00 0.00 0.00 79 1009.4
20260505051530 58 100 0.0 2.6 0.00 0.00 0.00 79 1009.4
20260505051046 58 118 0.0 1.7 0.00 0.00 0.00 79 1009.4
20260505050501 58 130 0.0 0.0 0.00 0.00 0.00 79 1009.4
20260505041604 59 115 0.0 2.6 0.00 0.00 0.00 77 1009.6
20260505041009 59 82 0.0 0.0 0.00 0.00 0.00 76 1009.6
20260505040526 59 82 0.0 0.0 0.00 0.00 0.00 76 1009.6
20260505040042 59 82 0.0 2.6 0.00 0.00 0.00 75 1009.7
20260505035557 59 82 0.0 2.6 0.00 0.00 0.00 75 1009.7
20260505035056 59 104 0.0 1.7 0.00 0.00 0.00 75 1009.5
20260505034611 59 124 0.0 2.6 0.00 0.00 0.00 74 1009.6
20260505034010 59 119 0.0 2.6 0.00 0.00 0.00 74 1009.4
20260505033527 59 92 0.0 2.6 0.00 0.00 0.00 74 1009.5
20260505033043 59 111 0.0 3.5 0.00 0.00 0.00 74 1009.3
20260505032557 59 113 0.0 0.9 0.00 0.00 0.00 73 1009.3
20260505032059 59 112 0.0 1.7 0.00 0.00 0.00 73 1009.5
20260505031605 60 100 0.0 1.7 0.00 0.00 0.00 73 1009.6
20260505031011 60 85 0.0 2.6 0.00 0.00 0.00 72 1009.6
20260505030531 60 119 0.0 2.6 0.00 0.00 0.00 72 1009.7
20260505030048 60 133 0.0 1.7 0.00 0.00 0.00 72 1009.7
20260505025600 60 133 0.0 2.6 0.00 0.00 0.00 71 1009.7
20260505025016 60 102 0.0 1.7 0.00 0.00 0.00 71 1009.8
20260505024529 60 84 0.0 1.7 0.00 0.00 0.00 71 1009.8
20260505024044 60 109 0.0 1.7 0.00 0.00 0.00 70 1009.8
20260505023601 61 117 0.0 2.6 0.00 0.00 0.00 70 1009.7
20260505023103 61 122 0.0 3.5 0.00 0.00 0.00 69 1009.7
20260505022503 61 113 0.0 3.5 0.00 0.00 0.00 69 1009.7
20260505022017 61 85 0.0 1.7 0.00 0.00 0.00 68 1009.7
20260505021532 61 85 0.0 2.6 0.00 0.00 0.00 68 1009.7
20260505021048 61 114 0.0 2.6 0.00 0.00 0.00 68 1009.7
20260505020503 61 86 0.0 0.9 0.00 0.00 0.00 67 1009.8
20260505020018 62 86 0.0 0.9 0.00 0.00 0.00 67 1009.8
20260505015533 62 86 0.0 0.9 0.00 0.00 0.00 66 1009.8
20260505015052 62 86 0.0 0.9 0.00 0.00 0.00 66 1009.8
20260505014505 62 86 0.0 2.6 0.00 0.00 0.00 65 1009.7
20260505014003 62 101 0.0 2.6 0.00 0.00 0.00 65 1009.7
20260505013518 63 88 0.0 2.6 0.00 0.00 0.00 65 1009.7
20260505013039 63 88 0.0 5.2 0.00 0.00 0.00 64 1009.7
20260505012551 63 93 0.0 5.2 0.00 0.00 0.00 64 1009.7
20260505012003 63 88 0.0 1.7 0.00 0.00 0.00 63 1009.7
20260505011520 63 107 0.0 2.6 0.00 0.00 0.00 62 1009.6
20260505011038 64 130 0.0 1.7 0.00 0.00 0.00 61 1009.6
20260505010552 64 91 0.0 1.7 0.00 0.00 0.00 59 1009.5
20260505010108 64 86 0.0 2.6 0.00 0.00 0.00 58 1009.3
20260505005554 64 94 0.0 2.6 0.00 0.00 0.00 56 1009.3
20260505005007 65 108 0.0 1.7 0.00 0.00 0.00 54 1009.2
20260505004545 65 94 0.0 1.7 0.00 0.00 0.00 51 1009.2
20260505004041 65 100 0.0 0.9 0.00 0.00 0.00 50 1009.2
20260505003555 66 100 0.0 0.0 0.00 0.00 0.00 49 1009.2
20260505003100 66 109 0.0 0.0 0.00 0.00 0.00 49 1009.1
20260505002603 66 109 0.0 0.0 0.00 0.00 0.00 48 1009.0
20260505002013 67 115 0.0 0.0 0.00 0.00 0.00 48 1008.9
20260505001535 67 115 0.0 0.9 0.00 0.00 0.00 47 1008.8
20260505001043 67 115 0.0 0.9 0.00 0.00 0.00 47 1008.8
20260505000600 68 115 0.0 1.7 0.00 0.00 0.00 46 1008.8
20260505000016 68 120 0.0 1.7 0.00 0.00 0.00 46 1008.7
20260504235530 68 121 0.0 1.7 0.00 0.00 0.00 45 1008.7
20260504235047 69 121 0.0 0.9 0.00 0.00 0.00 45 1008.7
20260504234549 69 116 0.0 0.9 0.00 0.00 0.00 45 1008.6
20260504234049 70 117 0.0 1.7 0.00 0.00 0.00 44 1008.6
20260504233603 70 117 0.0 0.9 0.00 0.00 0.00 44 1008.6
20260504233021 70 117 0.0 0.9 0.00 0.00 0.00 42 1008.5
20260504232533 71 140 0.0 0.9 0.00 0.00 0.00 43 1008.5
20260504232050 71 166 0.0 3.5 0.00 0.00 0.00 41 1008.5
20260504231503 71 162 0.0 5.2 0.00 0.00 0.00 41 1008.5
20260504231006 71 186 0.0 5.2 0.00 0.00 0.00 41 1008.4
20260504230504 71 187 0.9 5.2 0.00 0.00 0.00 40 1008.4
20260504230020 71 129 0.0 6.1 0.00 0.00 0.00 41 1008.5
20260504225535 71 152 2.6 6.1 0.00 0.00 0.00 40 1008.6
20260504225053 72 202 0.0 7.0 0.00 0.00 0.00 40 1008.5
20260504224551 72 163 2.6 13.0 0.00 0.00 0.00 40 1008.5
20260504224053 72 155 0.9 13.0 0.00 0.00 0.00 40 1008.4
20260504223507 72 150 1.7 8.7 0.00 0.00 0.00 39 1008.3
20260504223021 73 127 0.9 3.5 0.00 0.00 0.00 39 1008.4
20260504222540 73 109 0.9 4.3 0.00 0.00 0.00 39 1008.3
20260504222054 73 150 0.0 4.3 0.00 0.00 0.00 39 1008.4
20260504221506 73 188 0.9 4.3 0.00 0.00 0.00 38 1008.4
20260504221007 73 142 1.7 7.0 0.00 0.00 0.00 38 1008.5
20260504220523 73 215 0.9 7.0 0.00 0.00 0.00 38 1008.6
20260504220037 73 190 1.7 6.1 0.00 0.00 0.00 38 1008.5
20260504215552 73 210 2.6 6.1 0.00 0.00 0.00 37 1008.6
20260504215008 73 198 1.7 8.7 0.00 0.00 0.00 38 1008.5
20260504214519 73 193 2.6 8.7 0.00 0.00 0.00 38 1008.5
20260504214035 73 182 2.6 5.2 0.00 0.00 0.00 38 1008.4
20260504213552 73 152 0.0 6.1 0.00 0.00 0.00 38 1008.4
20260504213016 73 159 0.9 9.6 0.00 0.00 0.00 38 1008.3
20260504212506 73 134 1.7 13.0 0.00 0.00 0.00 38 1008.4
20260504212021 73 132 0.9 13.0 0.00 0.00 0.00 38 1008.5
20260504211537 73 161 1.7 7.0 0.00 0.00 0.00 37 1008.3
20260504211052 73 139 1.7 7.0 0.00 0.00 0.00 37 1008.4
20260504210506 74 165 1.7 5.2 0.00 0.00 0.00 36 1008.4
20260504210019 74 102 0.0 6.1 0.00 0.00 0.00 37 1008.4
20260504205535 73 136 1.7 7.8 0.00 0.00 0.00 37 1008.4
20260504205052 73 149 0.9 8.7 0.00 0.00 0.00 37 1008.4
20260504204508 73 223 2.6 8.7 0.00 0.00 0.00 36 1008.4
20260504204006 73 198 1.7 7.8 0.00 0.00 0.00 36 1008.4
20260504203523 73 221 2.6 7.8 0.00 0.00 0.00 36 1008.4
20260504203038 74 264 1.7 4.3 0.00 0.00 0.00 36 1008.4
20260504202554 74 231 0.9 4.3 0.00 0.00 0.00 36 1008.6
20260504202007 74 182 0.0 6.1 0.00 0.00 0.00 36 1008.4
20260504201526 73 231 0.9 6.1 0.00 0.00 0.00 36 1008.5
20260504201040 73 151 0.9 6.1 0.00 0.00 0.00 37 1008.4
20260504200555 73 124 0.9 4.3 0.00 0.00 0.00 37 1008.6
20260504200056 73 212 0.9 10.4 0.00 0.00 0.00 36 1008.6
20260504195509 73 208 3.5 10.4 0.00 0.00 0.00 36 1008.7
20260504195027 73 114 1.7 4.3 0.00 0.00 0.00 36 1008.6
20260504194549 73 234 0.9 4.3 0.00 0.00 0.00 36 1008.8
20260504194059 73 236 0.0 5.2 0.00 0.00 0.00 37 1008.8
20260504193513 72 130 1.7 7.8 0.00 0.00 0.00 36 1008.9
20260504193028 72 119 2.6 8.7 0.00 0.00 0.00 37 1008.9
20260504192543 72 236 2.6 10.4 0.00 0.00 0.00 36 1009.1
20260504192103 72 188 2.6 10.4 0.00 0.00 0.00 38 1009.3
20260504191623 72 161 0.0 5.2 0.00 0.00 0.00 39 1009.3
20260504191102 72 101 0.0 7.0 0.00 0.00 0.00 38 1009.3
20260504190515 72 140 0.9 7.8 0.00 0.00 0.00 37 1009.4
20260504190030 71 233 3.5 7.8 0.00 0.00 0.00 38 1009.5
20260504185548 72 178 0.0 8.7 0.00 0.00 0.00 40 1009.4
20260504185102 71 172 1.7 8.7 0.00 0.00 0.00 39 1009.7
20260504184503 71 194 2.6 8.7 0.00 0.00 0.00 37 1009.8
20260504184005 71 177 0.0 7.8 0.00 0.00 0.00 39 1009.8
20260504183519 71 196 2.6 7.8 0.00 0.00 0.00 38 1010.0
20260504183035 71 190 0.9 6.1 0.00 0.00 0.00 39 1010.0
20260504182553 71 234 0.0 6.1 0.00 0.00 0.00 37 1010.1
20260504182051 71 152 0.9 8.7 0.00 0.00 0.00 38 1010.0
20260504181552 70 194 1.7 15.6 0.00 0.00 0.00 38 1010.2
20260504181005 71 219 3.5 15.6 0.00 0.00 0.00 37 1010.3
20260504180520 70 200 0.0 10.4 0.00 0.00 0.00 41 1010.2
20260504180037 70 146 1.7 10.4 0.00 0.00 0.00 39 1010.5
20260504175552 70 200 2.6 14.8 0.00 0.00 0.00 37 1010.4
20260504175053 70 235 0.0 14.8 0.00 0.00 0.00 38 1010.6
20260504174551 70 212 1.7 10.4 0.00 0.00 0.00 41 1010.5
20260504174003 70 115 3.5 10.4 0.00 0.00 0.00 39 1010.8
20260504173521 70 179 0.9 10.4 0.00 0.00 0.00 39 1010.7
20260504173038 70 247 1.7 10.4 0.00 0.00 0.00 39 1010.7
20260504172550 69 107 0.9 7.0 0.00 0.00 0.00 40 1010.7
20260504172054 69 180 0.0 12.2 0.00 0.00 0.00 41 1010.8
20260504171553 69 146 3.5 13.0 0.00 0.00 0.00 39 1011.0
20260504171005 69 213 0.9 9.6 0.00 0.00 0.00 42 1011.1
20260504170518 68 177 0.9 9.6 0.00 0.00 0.00 41 1011.1
20260504151031 65 157 1.7 9.6 0.00 0.00 0.00 51 1012.4
20260504150545 65 148 0.9 7.0 0.00 0.00 0.00 50 1012.4
20260504141042 62 159 0.9 7.0 0.00 0.00 0.00 60 1012.6
20260504140553 61 151 0.9 7.8 0.00 0.00 0.00 60 1012.6
20260504140103 61 100 0.9 7.8 0.00 0.00 0.00 60 1012.7
20260504130604 59 154 0.0 6.1 0.00 0.00 0.00 64 1013.2
20260504110544 47 154 0.0 0.0 0.00 0.00 0.00 82 1014.1
20260504100525 47 190 0.0 4.3 0.00 0.00 0.00 77 1014.1
20260504081549 49 153 0.0 1.7 0.00 0.00 0.00 71 1013.7
20260504081005 48 188 0.0 0.0 0.00 0.00 0.00 71 1013.7
20260504080520 48 159 0.0 1.7 0.00 0.00 0.00 71 1013.8